Year,Month,Day,Hour,Minute,Value (Times are PST for temperature in C)
2009,04,23,00,00,6.60
2009,04,23,00,01,6.60
2009,04,23,00,02,6.60
2009,04,23,00,03,6.50
2009,04,23,00,04,6.50
2009,04,23,00,05,6.50
2009,04,23,00,06,6.50
2009,04,23,00,07,6.50
2009,04,23,00,08,6.50
2009,04,23,00,09,6.50
2009,04,23,00,10,6.50
2009,04,23,00,11,6.50
2009,04,23,00,12,6.50
2009,04,23,00,13,6.40
2009,04,23,00,14,6.40
2009,04,23,00,15,6.40
2009,04,23,00,16,6.40
2009,04,23,00,17,6.40
2009,04,23,00,18,6.40
2009,04,23,00,19,6.40
2009,04,23,00,20,6.40
2009,04,23,00,21,6.40
2009,04,23,00,22,6.40
2009,04,23,00,23,6.40
2009,04,23,00,24,6.40
2009,04,23,00,25,6.40
2009,04,23,00,26,6.40
2009,04,23,00,27,6.40
2009,04,23,00,28,6.40
2009,04,23,00,29,6.40
2009,04,23,00,30,6.30
2009,04,23,00,31,6.30
2009,04,23,00,32,6.30
2009,04,23,00,33,6.30
2009,04,23,00,34,6.30
2009,04,23,00,35,6.30
2009,04,23,00,36,6.30
2009,04,23,00,37,6.30
2009,04,23,00,38,6.30
2009,04,23,00,39,6.30
2009,04,23,00,40,6.30
2009,04,23,00,41,6.30
2009,04,23,00,42,6.30
2009,04,23,00,43,6.30
2009,04,23,00,44,6.30
2009,04,23,00,45,6.30
2009,04,23,00,46,6.20
2009,04,23,00,47,6.20
2009,04,23,00,48,6.20
2009,04,23,00,49,6.20
2009,04,23,00,50,6.20
2009,04,23,00,51,6.20
2009,04,23,00,52,6.20
2009,04,23,00,53,6.20
2009,04,23,00,54,6.20
2009,04,23,00,55,6.20
2009,04,23,00,56,6.20
2009,04,23,00,57,6.10
2009,04,23,00,58,6.20
2009,04,23,00,59,6.10
2009,04,23,01,00,6.10
2009,04,23,01,01,6.10
2009,04,23,01,02,6.10
2009,04,23,01,03,6.10
2009,04,23,01,04,6.10
2009,04,23,01,05,6.10
2009,04,23,01,06,6.20
2009,04,23,01,07,6.20
2009,04,23,01,08,6.20
2009,04,23,01,09,6.20
2009,04,23,01,10,6.20
2009,04,23,01,11,6.20
2009,04,23,01,12,6.30
2009,04,23,01,13,6.30
2009,04,23,01,14,6.30
2009,04,23,01,15,6.30
2009,04,23,01,16,6.30
2009,04,23,01,17,6.30
2009,04,23,01,18,6.30
2009,04,23,01,19,6.30
2009,04,23,01,20,6.30
2009,04,23,01,21,6.30
2009,04,23,01,22,6.30
2009,04,23,01,23,6.30
2009,04,23,01,24,6.30
2009,04,23,01,25,6.40
2009,04,23,01,26,6.40
2009,04,23,01,27,6.40
2009,04,23,01,28,6.40
2009,04,23,01,29,6.40
2009,04,23,01,30,6.40
2009,04,23,01,31,6.40
2009,04,23,01,32,6.40
2009,04,23,01,33,6.40
2009,04,23,01,34,6.40
2009,04,23,01,35,6.40
2009,04,23,01,36,6.40
2009,04,23,01,37,6.40
2009,04,23,01,38,6.50
2009,04,23,01,39,6.50
2009,04,23,01,40,6.50
2009,04,23,01,41,6.50
2009,04,23,01,42,6.50
2009,04,23,01,43,6.50
2009,04,23,01,44,6.50
2009,04,23,01,45,6.50
2009,04,23,01,46,6.50
2009,04,23,01,47,6.50
2009,04,23,01,48,6.50
2009,04,23,01,49,6.60
2009,04,23,01,50,6.60
2009,04,23,01,51,6.60
2009,04,23,01,52,6.60
2009,04,23,01,53,6.60
2009,04,23,01,54,6.60
2009,04,23,01,55,6.60
2009,04,23,01,56,6.60
2009,04,23,01,57,6.60
2009,04,23,01,58,6.60
2009,04,23,01,59,6.60
2009,04,23,02,00,6.60
2009,04,23,02,01,6.60
2009,04,23,02,02,6.60
2009,04,23,02,03,6.60
2009,04,23,02,04,6.60
2009,04,23,02,05,6.50
2009,04,23,02,06,6.50
2009,04,23,02,07,6.50
2009,04,23,02,08,6.50
2009,04,23,02,09,6.50
2009,04,23,02,10,6.60
2009,04,23,02,11,6.60
2009,04,23,02,12,6.60
2009,04,23,02,13,6.60
2009,04,23,02,14,6.60
2009,04,23,02,15,6.60
2009,04,23,02,16,6.60
2009,04,23,02,17,6.60
2009,04,23,02,18,6.60
2009,04,23,02,19,6.60
2009,04,23,02,20,6.60
2009,04,23,02,21,6.60
2009,04,23,02,22,6.60
2009,04,23,02,23,6.60
2009,04,23,02,24,6.60
2009,04,23,02,25,6.60
2009,04,23,02,26,6.60
2009,04,23,02,27,6.60
2009,04,23,02,28,6.60
2009,04,23,02,29,6.60
2009,04,23,02,30,6.60
2009,04,23,02,31,6.60
2009,04,23,02,32,6.60
2009,04,23,02,33,6.60
2009,04,23,02,34,6.50
2009,04,23,02,35,6.50
2009,04,23,02,36,6.50
2009,04,23,02,37,6.50
2009,04,23,02,38,6.50
2009,04,23,02,39,6.50
2009,04,23,02,40,6.50
2009,04,23,02,41,6.50
2009,04,23,02,42,6.50
2009,04,23,02,43,6.40
2009,04,23,02,44,6.40
2009,04,23,02,45,6.40
2009,04,23,02,46,6.40
2009,04,23,02,47,6.40
2009,04,23,02,48,6.40
2009,04,23,02,49,6.40
2009,04,23,02,50,6.30
2009,04,23,02,51,6.30
2009,04,23,02,52,6.30
2009,04,23,02,53,6.30
2009,04,23,02,54,6.30
2009,04,23,02,55,6.30
2009,04,23,02,56,6.30
2009,04,23,02,57,6.30
2009,04,23,02,58,6.30
2009,04,23,02,59,6.30
2009,04,23,03,00,6.30
2009,04,23,03,01,6.30
2009,04,23,03,02,6.30
2009,04,23,03,03,6.20
2009,04,23,03,04,6.20
2009,04,23,03,05,6.20
2009,04,23,03,06,6.20
2009,04,23,03,07,6.20
2009,04,23,03,08,6.20
2009,04,23,03,09,6.20
2009,04,23,03,10,6.20
2009,04,23,03,11,6.20
2009,04,23,03,12,6.20
2009,04,23,03,13,6.20
2009,04,23,03,14,6.10
2009,04,23,03,15,6.10
2009,04,23,03,16,6.10
2009,04,23,03,17,6.10
2009,04,23,03,18,6.10
2009,04,23,03,19,6.00
2009,04,23,03,20,6.00
2009,04,23,03,21,6.00
2009,04,23,03,22,6.00
2009,04,23,03,23,6.00
2009,04,23,03,24,6.00
2009,04,23,03,25,5.90
2009,04,23,03,26,5.90
2009,04,23,03,27,5.90
2009,04,23,03,28,5.90
2009,04,23,03,29,5.90
2009,04,23,03,30,5.90
2009,04,23,03,31,5.90
2009,04,23,03,32,5.90
2009,04,23,03,33,5.90
2009,04,23,03,34,5.90
2009,04,23,03,35,5.90
2009,04,23,03,36,5.90
2009,04,23,03,37,5.90
2009,04,23,03,38,5.80
2009,04,23,03,39,5.80
2009,04,23,03,40,5.80
2009,04,23,03,41,5.80
2009,04,23,03,42,5.80
2009,04,23,03,43,5.80
2009,04,23,03,44,5.80
2009,04,23,03,45,5.80
2009,04,23,03,46,5.80
2009,04,23,03,47,5.80
2009,04,23,03,48,5.80
2009,04,23,03,49,5.80
2009,04,23,03,50,5.80
2009,04,23,03,51,5.80
2009,04,23,03,52,5.80
2009,04,23,03,53,5.80
2009,04,23,03,54,5.70
2009,04,23,03,55,5.70
2009,04,23,03,56,5.70
2009,04,23,03,57,5.70
2009,04,23,03,58,5.70
2009,04,23,03,59,5.70
2009,04,23,04,00,5.70
2009,04,23,04,01,5.70
2009,04,23,04,02,5.70
2009,04,23,04,03,5.70
2009,04,23,04,04,5.70
2009,04,23,04,05,5.70
2009,04,23,04,06,5.70
2009,04,23,04,07,5.70
2009,04,23,04,08,5.70
2009,04,23,04,09,5.70
2009,04,23,04,10,5.70
2009,04,23,04,11,5.70
2009,04,23,04,12,5.70
2009,04,23,04,13,5.70
2009,04,23,04,14,5.70
2009,04,23,04,15,5.70
2009,04,23,04,16,5.70
2009,04,23,04,17,5.70
2009,04,23,04,18,5.70
2009,04,23,04,19,5.70
2009,04,23,04,20,5.60
2009,04,23,04,21,5.60
2009,04,23,04,22,5.60
2009,04,23,04,23,5.60
2009,04,23,04,24,5.60
2009,04,23,04,25,5.60
2009,04,23,04,26,5.60
2009,04,23,04,27,5.60
2009,04,23,04,28,5.60
2009,04,23,04,29,5.60
2009,04,23,04,30,5.60
2009,04,23,04,31,5.50
2009,04,23,04,32,5.50
2009,04,23,04,33,5.50
2009,04,23,04,34,5.50
2009,04,23,04,35,5.50
2009,04,23,04,36,5.50
2009,04,23,04,37,5.40
2009,04,23,04,38,5.40
2009,04,23,04,39,5.40
2009,04,23,04,40,5.40
2009,04,23,04,41,5.40
2009,04,23,04,42,5.40
2009,04,23,04,43,5.40
2009,04,23,04,44,5.40
2009,04,23,04,45,5.40
2009,04,23,04,46,5.40
2009,04,23,04,47,5.40
2009,04,23,04,48,5.40
2009,04,23,04,49,5.40
2009,04,23,04,50,5.40
2009,04,23,04,51,5.40
2009,04,23,04,52,5.40
2009,04,23,04,53,5.40
2009,04,23,04,54,5.40
2009,04,23,04,55,5.40
2009,04,23,04,56,5.40
2009,04,23,04,57,5.40
2009,04,23,04,58,5.40
2009,04,23,04,59,5.40
2009,04,23,05,00,5.40
2009,04,23,05,01,5.40
2009,04,23,05,02,5.40
2009,04,23,05,03,5.40
2009,04,23,05,04,5.40
2009,04,23,05,05,5.40
2009,04,23,05,06,5.40
2009,04,23,05,07,5.40
2009,04,23,05,08,5.40
2009,04,23,05,09,5.40
2009,04,23,05,10,5.30
2009,04,23,05,11,5.30
2009,04,23,05,12,5.30
2009,04,23,05,13,5.30
2009,04,23,05,14,5.30
2009,04,23,05,15,5.30
2009,04,23,05,16,5.30
2009,04,23,05,17,5.30
2009,04,23,05,18,5.30
2009,04,23,05,19,5.20
2009,04,23,05,20,5.20
2009,04,23,05,21,5.20
2009,04,23,05,22,5.20
2009,04,23,05,23,5.10
2009,04,23,05,24,5.10
2009,04,23,05,25,5.10
2009,04,23,05,26,5.10
2009,04,23,05,27,5.10
2009,04,23,05,28,5.00
2009,04,23,05,29,5.00
2009,04,23,05,30,5.00
2009,04,23,05,31,5.00
2009,04,23,05,32,5.00
2009,04,23,05,33,5.00
2009,04,23,05,34,5.00
2009,04,23,05,35,5.00
2009,04,23,05,36,5.00
2009,04,23,05,37,5.00
2009,04,23,05,38,5.00
2009,04,23,05,39,5.00
2009,04,23,05,40,5.00
2009,04,23,05,41,5.00
2009,04,23,05,42,5.00
2009,04,23,05,43,4.90
2009,04,23,05,44,4.90
2009,04,23,05,45,5.00
2009,04,23,05,46,4.90
2009,04,23,05,47,4.90
2009,04,23,05,48,4.90
2009,04,23,05,49,4.90
2009,04,23,05,50,5.00
2009,04,23,05,51,5.00
2009,04,23,05,52,5.00
2009,04,23,05,53,5.00
2009,04,23,05,54,5.00
2009,04,23,05,55,5.00
2009,04,23,05,56,5.00
2009,04,23,05,57,5.00
2009,04,23,05,58,4.90
2009,04,23,05,59,4.90
2009,04,23,06,00,4.90
2009,04,23,06,01,5.00
2009,04,23,06,02,5.10
2009,04,23,06,03,5.10
2009,04,23,06,04,5.10
2009,04,23,06,05,5.10
2009,04,23,06,06,5.10
2009,04,23,06,07,5.10
2009,04,23,06,08,5.10
2009,04,23,06,09,5.10
2009,04,23,06,10,5.00
2009,04,23,06,11,5.00
2009,04,23,06,12,4.90
2009,04,23,06,13,4.90
2009,04,23,06,14,4.90
2009,04,23,06,15,4.80
2009,04,23,06,16,4.80
2009,04,23,06,17,4.80
2009,04,23,06,18,4.80
2009,04,23,06,19,4.80
2009,04,23,06,20,4.80
2009,04,23,06,21,4.70
2009,04,23,06,22,4.70
2009,04,23,06,23,4.70
2009,04,23,06,24,4.70
2009,04,23,06,25,4.70
2009,04,23,06,26,4.70
2009,04,23,06,27,4.70
2009,04,23,06,28,4.70
2009,04,23,06,29,4.70
2009,04,23,06,30,4.70
2009,04,23,06,31,4.70
2009,04,23,06,32,4.70
2009,04,23,06,33,4.70
2009,04,23,06,34,4.70
2009,04,23,06,35,4.70
2009,04,23,06,36,4.70
2009,04,23,06,37,4.70
2009,04,23,06,38,4.70
2009,04,23,06,39,4.70
2009,04,23,06,40,4.70
2009,04,23,06,41,4.70
2009,04,23,06,42,4.70
2009,04,23,06,43,4.70
2009,04,23,06,44,4.70
2009,04,23,06,45,4.70
2009,04,23,06,46,4.70
2009,04,23,06,47,4.70
2009,04,23,06,48,4.70
2009,04,23,06,49,4.70
2009,04,23,06,50,4.70
2009,04,23,06,51,4.70
2009,04,23,06,52,4.70
2009,04,23,06,53,4.70
2009,04,23,06,54,4.80
2009,04,23,06,55,4.80
2009,04,23,06,56,4.80
2009,04,23,06,57,4.80
2009,04,23,06,58,4.90
2009,04,23,06,59,4.90
2009,04,23,07,00,5.00
2009,04,23,07,01,5.00
2009,04,23,07,02,5.10
2009,04,23,07,03,5.10
2009,04,23,07,04,5.10
2009,04,23,07,05,5.20
2009,04,23,07,06,5.20
2009,04,23,07,07,5.20
2009,04,23,07,08,5.30
2009,04,23,07,09,5.30
2009,04,23,07,10,5.30
2009,04,23,07,11,5.40
2009,04,23,07,12,5.40
2009,04,23,07,13,5.40
2009,04,23,07,14,5.40
2009,04,23,07,15,5.50
2009,04,23,07,16,5.50
2009,04,23,07,17,5.50
2009,04,23,07,18,5.60
2009,04,23,07,19,5.60
2009,04,23,07,20,5.70
2009,04,23,07,21,5.70
2009,04,23,07,22,5.70
2009,04,23,07,23,5.80
2009,04,23,07,24,5.80
2009,04,23,07,25,5.80
2009,04,23,07,26,5.80
2009,04,23,07,27,5.90
2009,04,23,07,28,5.90
2009,04,23,07,29,6.00
2009,04,23,07,30,6.00
2009,04,23,07,31,6.10
2009,04,23,07,32,6.10
2009,04,23,07,33,6.10
2009,04,23,07,34,6.20
2009,04,23,07,35,6.20
2009,04,23,07,36,6.20
2009,04,23,07,37,6.30
2009,04,23,07,38,6.30
2009,04,23,07,39,6.40
2009,04,23,07,40,6.40
2009,04,23,07,41,6.40
2009,04,23,07,42,6.50
2009,04,23,07,43,6.60
2009,04,23,07,44,6.60
2009,04,23,07,45,6.60
2009,04,23,07,46,6.70
2009,04,23,07,47,6.70
2009,04,23,07,48,6.70
2009,04,23,07,49,6.80
2009,04,23,07,50,6.80
2009,04,23,07,51,6.80
2009,04,23,07,52,6.80
2009,04,23,07,53,6.80
2009,04,23,07,54,6.80
2009,04,23,07,55,6.90
2009,04,23,07,56,6.90
2009,04,23,07,57,6.90
2009,04,23,07,58,6.90
2009,04,23,07,59,6.90
2009,04,23,08,00,6.90
2009,04,23,08,01,6.90
2009,04,23,08,02,6.90
2009,04,23,08,03,6.90
2009,04,23,08,04,6.90
2009,04,23,08,05,7.00
2009,04,23,08,06,7.00
2009,04,23,08,07,7.00
2009,04,23,08,08,7.00
2009,04,23,08,09,7.10
2009,04,23,08,10,7.10
2009,04,23,08,11,7.10
2009,04,23,08,12,7.20
2009,04,23,08,13,7.20
2009,04,23,08,14,7.20
2009,04,23,08,15,7.10
2009,04,23,08,16,7.10
2009,04,23,08,17,7.20
2009,04,23,08,18,7.20
2009,04,23,08,19,7.20
2009,04,23,08,20,7.20
2009,04,23,08,21,7.20
2009,04,23,08,22,7.30
2009,04,23,08,23,7.30
2009,04,23,08,24,7.30
2009,04,23,08,25,7.30
2009,04,23,08,26,7.30
2009,04,23,08,27,7.40
2009,04,23,08,28,7.40
2009,04,23,08,29,7.50
2009,04,23,08,30,7.60
2009,04,23,08,31,7.60
2009,04,23,08,32,7.70
2009,04,23,08,33,7.70
2009,04,23,08,34,7.70
2009,04,23,08,35,7.70
2009,04,23,08,36,7.70
2009,04,23,08,37,7.70
2009,04,23,08,38,7.70
2009,04,23,08,39,7.70
2009,04,23,08,40,7.70
2009,04,23,08,41,7.70
2009,04,23,08,42,7.70
2009,04,23,08,43,7.70
2009,04,23,08,44,7.70
2009,04,23,08,45,7.70
2009,04,23,08,46,7.80
2009,04,23,08,47,7.80
2009,04,23,08,48,7.80
2009,04,23,08,49,7.90
2009,04,23,08,50,7.90
2009,04,23,08,51,7.90
2009,04,23,08,52,7.90
2009,04,23,08,53,8.00
2009,04,23,08,54,8.00
2009,04,23,08,55,8.10
2009,04,23,08,56,8.20
2009,04,23,08,57,8.20
2009,04,23,08,58,8.20
2009,04,23,08,59,8.20
2009,04,23,09,00,8.20
2009,04,23,09,01,8.20
2009,04,23,09,02,8.20
2009,04,23,09,03,8.30
2009,04,23,09,04,8.30
2009,04,23,09,05,8.30
2009,04,23,09,06,8.40
2009,04,23,09,07,8.50
2009,04,23,09,08,8.60
2009,04,23,09,09,8.60
2009,04,23,09,10,8.70
2009,04,23,09,11,8.80
2009,04,23,09,12,8.90
2009,04,23,09,13,9.00
2009,04,23,09,14,9.10
2009,04,23,09,15,9.10
2009,04,23,09,16,9.10
2009,04,23,09,17,9.20
2009,04,23,09,18,9.20
2009,04,23,09,19,9.20
2009,04,23,09,20,9.30
2009,04,23,09,21,9.30
2009,04,23,09,22,9.30
2009,04,23,09,23,9.40
2009,04,23,09,24,9.30
2009,04,23,09,25,9.30
2009,04,23,09,26,9.30
2009,04,23,09,27,9.30
2009,04,23,09,28,9.40
2009,04,23,09,29,9.40
2009,04,23,09,30,9.40
2009,04,23,09,31,9.50
2009,04,23,09,32,9.50
2009,04,23,09,33,9.50
2009,04,23,09,34,9.60
2009,04,23,09,35,9.50
2009,04,23,09,36,9.50
2009,04,23,09,37,9.50
2009,04,23,09,38,9.40
2009,04,23,09,39,9.40
2009,04,23,09,40,9.40
2009,04,23,09,41,9.40
2009,04,23,09,42,9.40
2009,04,23,09,43,9.50
2009,04,23,09,44,9.60
2009,04,23,09,45,9.60
2009,04,23,09,46,9.70
2009,04,23,09,47,9.70
2009,04,23,09,48,9.80
2009,04,23,09,49,9.80
2009,04,23,09,50,9.90
2009,04,23,09,51,10.00
2009,04,23,09,52,10.10
2009,04,23,09,53,10.00
2009,04,23,09,54,10.00
2009,04,23,09,55,10.00
2009,04,23,09,56,10.00
2009,04,23,09,57,10.00
2009,04,23,09,58,9.90
2009,04,23,09,59,9.90
2009,04,23,10,00,10.00
2009,04,23,10,01,10.10
2009,04,23,10,02,10.10
2009,04,23,10,03,10.20
2009,04,23,10,04,10.20
2009,04,23,10,05,10.20
2009,04,23,10,06,10.20
2009,04,23,10,07,10.10
2009,04,23,10,08,10.10
2009,04,23,10,09,10.10
2009,04,23,10,10,10.10
2009,04,23,10,11,10.10
2009,04,23,10,12,10.10
2009,04,23,10,13,10.10
2009,04,23,10,14,10.10
2009,04,23,10,15,10.10
2009,04,23,10,16,10.10
2009,04,23,10,17,10.00
2009,04,23,10,18,10.00
2009,04,23,10,19,9.90
2009,04,23,10,20,9.90
2009,04,23,10,21,10.00
2009,04,23,10,22,10.00
2009,04,23,10,23,10.10
2009,04,23,10,24,10.10
2009,04,23,10,25,10.10
2009,04,23,10,26,10.10
2009,04,23,10,27,10.10
2009,04,23,10,28,10.10
2009,04,23,10,29,10.10
2009,04,23,10,30,10.10
2009,04,23,10,31,10.10
2009,04,23,10,32,10.10
2009,04,23,10,33,10.20
2009,04,23,10,34,10.20
2009,04,23,10,35,10.30
2009,04,23,10,36,10.30
2009,04,23,10,37,10.30
2009,04,23,10,38,10.30
2009,04,23,10,39,10.30
2009,04,23,10,40,10.20
2009,04,23,10,41,10.30
2009,04,23,10,42,10.30
2009,04,23,10,43,10.40
2009,04,23,10,44,10.50
2009,04,23,10,45,10.60
2009,04,23,10,46,10.70
2009,04,23,10,47,10.70
2009,04,23,10,48,10.80
2009,04,23,10,49,10.80
2009,04,23,10,50,10.80
2009,04,23,10,51,10.80
2009,04,23,10,52,10.80
2009,04,23,10,53,10.80
2009,04,23,10,54,10.70
2009,04,23,10,55,10.70
2009,04,23,10,56,10.70
2009,04,23,10,57,10.70
2009,04,23,10,58,10.70
2009,04,23,10,59,10.70
2009,04,23,11,00,10.70
2009,04,23,11,01,10.70
2009,04,23,11,02,10.70
2009,04,23,11,03,10.70
2009,04,23,11,04,10.70
2009,04,23,11,05,10.70
2009,04,23,11,06,10.70
2009,04,23,11,07,10.70
2009,04,23,11,08,10.70
2009,04,23,11,09,10.70
2009,04,23,11,10,10.70
2009,04,23,11,11,10.70
2009,04,23,11,12,10.70
2009,04,23,11,13,10.70
2009,04,23,11,14,10.70
2009,04,23,11,15,10.70
2009,04,23,11,16,10.70
2009,04,23,11,17,10.60
2009,04,23,11,18,10.60
2009,04,23,11,19,10.60
2009,04,23,11,20,10.60
2009,04,23,11,21,10.60
2009,04,23,11,22,10.60
2009,04,23,11,23,10.60
2009,04,23,11,24,10.60
2009,04,23,11,25,10.60
2009,04,23,11,26,10.60
2009,04,23,11,27,10.60
2009,04,23,11,28,10.50
2009,04,23,11,29,10.50
2009,04,23,11,30,10.50
2009,04,23,11,31,10.40
2009,04,23,11,32,10.40
2009,04,23,11,33,10.30
2009,04,23,11,34,10.30
2009,04,23,11,35,10.30
2009,04,23,11,36,10.30
2009,04,23,11,37,10.30
2009,04,23,11,38,10.30
2009,04,23,11,39,10.40
2009,04,23,11,40,10.40
2009,04,23,11,41,10.40
2009,04,23,11,42,10.40
2009,04,23,11,43,10.40
2009,04,23,11,44,10.40
2009,04,23,11,45,10.30
2009,04,23,11,46,10.30
2009,04,23,11,47,10.30
2009,04,23,11,48,10.30
2009,04,23,11,49,10.30
2009,04,23,11,50,10.30
2009,04,23,11,51,10.20
2009,04,23,11,52,10.20
2009,04,23,11,53,10.10
2009,04,23,11,54,10.10
2009,04,23,11,55,10.10
2009,04,23,11,56,10.10
2009,04,23,11,57,10.10
2009,04,23,11,58,10.10
2009,04,23,11,59,10.00
2009,04,23,12,00,10.00
2009,04,23,12,01,9.90
2009,04,23,12,02,9.90
2009,04,23,12,03,9.90
2009,04,23,12,04,9.90
2009,04,23,12,05,9.90
2009,04,23,12,06,9.80
2009,04,23,12,07,9.80
2009,04,23,12,08,9.70
2009,04,23,12,09,9.70
2009,04,23,12,10,9.60
2009,04,23,12,11,9.60
2009,04,23,12,12,9.60
2009,04,23,12,13,9.50
2009,04,23,12,14,9.50
2009,04,23,12,15,9.50
2009,04,23,12,16,9.50
2009,04,23,12,17,9.50
2009,04,23,12,18,9.60
2009,04,23,12,19,9.70
2009,04,23,12,20,9.70
2009,04,23,12,21,9.80
2009,04,23,12,22,9.80
2009,04,23,12,23,9.80
2009,04,23,12,24,9.90
2009,04,23,12,25,10.00
2009,04,23,12,26,10.00
2009,04,23,12,27,10.10
2009,04,23,12,28,10.20
2009,04,23,12,29,10.30
2009,04,23,12,30,10.30
2009,04,23,12,31,10.40
2009,04,23,12,32,10.50
2009,04,23,12,33,10.60
2009,04,23,12,34,10.60
2009,04,23,12,35,10.60
2009,04,23,12,36,10.70
2009,04,23,12,37,10.70
2009,04,23,12,38,10.70
2009,04,23,12,39,10.70
2009,04,23,12,40,10.80
2009,04,23,12,41,10.80
2009,04,23,12,42,10.90
2009,04,23,12,43,10.90
2009,04,23,12,44,10.90
2009,04,23,12,45,10.90
2009,04,23,12,46,10.90
2009,04,23,12,47,11.00
2009,04,23,12,48,11.10
2009,04,23,12,49,11.10
2009,04,23,12,50,11.20
2009,04,23,12,51,11.10
2009,04,23,12,52,11.10
2009,04,23,12,53,11.20
2009,04,23,12,54,11.20
2009,04,23,12,55,11.10
2009,04,23,12,56,11.10
2009,04,23,12,57,11.10
2009,04,23,12,58,11.10
2009,04,23,12,59,11.10
2009,04,23,13,00,11.10
2009,04,23,13,01,11.20
2009,04,23,13,02,11.20
2009,04,23,13,03,11.30
2009,04,23,13,04,11.30
2009,04,23,13,05,11.30
2009,04,23,13,06,11.30
2009,04,23,13,07,11.20
2009,04,23,13,08,11.10
2009,04,23,13,09,11.10
2009,04,23,13,10,11.10
2009,04,23,13,11,11.00
2009,04,23,13,12,11.00
2009,04,23,13,13,10.90
2009,04,23,13,14,10.90
2009,04,23,13,15,10.90
2009,04,23,13,16,10.80
2009,04,23,13,17,10.70
2009,04,23,13,18,10.70
2009,04,23,13,19,10.70
2009,04,23,13,20,10.60
2009,04,23,13,21,10.60
2009,04,23,13,22,10.50
2009,04,23,13,23,10.50
2009,04,23,13,24,10.40
2009,04,23,13,25,10.40
2009,04,23,13,26,10.50
2009,04,23,13,27,10.50
2009,04,23,13,28,10.40
2009,04,23,13,29,10.30
2009,04,23,13,30,10.20
2009,04,23,13,31,10.20
2009,04,23,13,32,10.20
2009,04,23,13,33,10.20
2009,04,23,13,34,10.30
2009,04,23,13,35,10.30
2009,04,23,13,36,10.30
2009,04,23,13,37,10.30
2009,04,23,13,38,10.30
2009,04,23,13,39,10.40
2009,04,23,13,40,10.40
2009,04,23,13,41,10.50
2009,04,23,13,42,10.50
2009,04,23,13,43,10.60
2009,04,23,13,44,10.60
2009,04,23,13,45,10.60
2009,04,23,13,46,10.70
2009,04,23,13,47,10.60
2009,04,23,13,48,10.60
2009,04,23,13,49,10.50
2009,04,23,13,50,10.40
2009,04,23,13,51,10.40
2009,04,23,13,52,10.40
2009,04,23,13,53,10.40
2009,04,23,13,54,10.50
2009,04,23,13,55,10.50
2009,04,23,13,56,10.50
2009,04,23,13,57,10.40
2009,04,23,13,58,10.40
2009,04,23,13,59,10.40
2009,04,23,14,00,10.40
2009,04,23,14,01,10.40
2009,04,23,14,02,10.40
2009,04,23,14,03,10.50
2009,04,23,14,04,10.50
2009,04,23,14,05,10.50
2009,04,23,14,06,10.60
2009,04,23,14,07,10.60
2009,04,23,14,08,10.60
2009,04,23,14,09,10.70
2009,04,23,14,10,10.80
2009,04,23,14,11,10.80
2009,04,23,14,12,10.90
2009,04,23,14,13,10.90
2009,04,23,14,14,10.90
2009,04,23,14,15,11.00
2009,04,23,14,16,11.00
2009,04,23,14,17,11.00
2009,04,23,14,18,11.10
2009,04,23,14,19,11.10
2009,04,23,14,20,11.10
2009,04,23,14,21,11.10
2009,04,23,14,22,11.10
2009,04,23,14,23,11.20
2009,04,23,14,24,11.20
2009,04,23,14,25,11.30
2009,04,23,14,26,11.30
2009,04,23,14,27,11.40
2009,04,23,14,28,11.40
2009,04,23,14,29,11.40
2009,04,23,14,30,11.30
2009,04,23,14,31,11.40
2009,04,23,14,32,11.40
2009,04,23,14,33,11.50
2009,04,23,14,34,11.50
2009,04,23,14,35,11.50
2009,04,23,14,36,11.40
2009,04,23,14,37,11.40
2009,04,23,14,38,11.40
2009,04,23,14,39,11.40
2009,04,23,14,40,11.40
2009,04,23,14,41,11.40
2009,04,23,14,42,11.40
2009,04,23,14,43,11.30
2009,04,23,14,44,11.40
2009,04,23,14,45,11.40
2009,04,23,14,46,11.40
2009,04,23,14,47,11.50
2009,04,23,14,48,11.50
2009,04,23,14,49,11.50
2009,04,23,14,50,11.50
2009,04,23,14,51,11.40
2009,04,23,14,52,11.40
2009,04,23,14,53,11.40
2009,04,23,14,54,11.50
2009,04,23,14,55,11.50
2009,04,23,14,56,11.50
2009,04,23,14,57,11.50
2009,04,23,14,58,11.60
2009,04,23,14,59,11.70
2009,04,23,15,00,11.80
2009,04,23,15,01,11.80
2009,04,23,15,02,11.80
2009,04,23,15,03,11.80
2009,04,23,15,04,11.80
2009,04,23,15,05,11.70
2009,04,23,15,06,11.60
2009,04,23,15,07,11.60
2009,04,23,15,08,11.50
2009,04,23,15,09,11.50
2009,04,23,15,10,11.40
2009,04,23,15,11,11.30
2009,04,23,15,12,11.30
2009,04,23,15,13,11.20
2009,04,23,15,14,11.20
2009,04,23,15,15,11.20
2009,04,23,15,16,11.20
2009,04,23,15,17,11.20
2009,04,23,15,18,11.20
2009,04,23,15,19,11.20
2009,04,23,15,20,11.30
2009,04,23,15,21,11.30
2009,04,23,15,22,11.30
2009,04,23,15,23,11.30
2009,04,23,15,24,11.40
2009,04,23,15,25,11.40
2009,04,23,15,26,11.40
2009,04,23,15,27,11.50
2009,04,23,15,28,11.60
2009,04,23,15,29,11.60
2009,04,23,15,30,11.60
2009,04,23,15,31,11.60
2009,04,23,15,32,11.70
2009,04,23,15,33,11.80
2009,04,23,15,34,11.80
2009,04,23,15,35,11.90
2009,04,23,15,36,12.00
2009,04,23,15,37,12.10
2009,04,23,15,38,12.20
2009,04,23,15,39,12.30
2009,04,23,15,40,12.30
2009,04,23,15,41,12.40
2009,04,23,15,42,12.50
2009,04,23,15,43,12.60
2009,04,23,15,44,12.60
2009,04,23,15,45,12.50
2009,04,23,15,46,12.50
2009,04,23,15,47,12.50
2009,04,23,15,48,12.50
2009,04,23,15,49,12.50
2009,04,23,15,50,12.50
2009,04,23,15,51,12.40
2009,04,23,15,52,12.40
2009,04,23,15,53,12.40
2009,04,23,15,54,12.40
2009,04,23,15,55,12.40
2009,04,23,15,56,12.40
2009,04,23,15,57,12.40
2009,04,23,15,58,12.30
2009,04,23,15,59,12.30
2009,04,23,16,00,12.30
2009,04,23,16,01,12.30
2009,04,23,16,02,12.30
2009,04,23,16,03,12.30
2009,04,23,16,04,12.30
2009,04,23,16,05,12.30
2009,04,23,16,06,12.30
2009,04,23,16,07,12.20
2009,04,23,16,08,12.20
2009,04,23,16,09,12.20
2009,04,23,16,10,12.10
2009,04,23,16,11,12.10
2009,04,23,16,12,12.10
2009,04,23,16,13,12.10
2009,04,23,16,14,12.20
2009,04,23,16,15,12.20
2009,04,23,16,16,12.20
2009,04,23,16,17,12.20
2009,04,23,16,18,12.10
2009,04,23,16,19,12.00
2009,04,23,16,20,11.90
2009,04,23,16,21,11.90
2009,04,23,16,22,11.90
2009,04,23,16,23,11.90
2009,04,23,16,24,11.90
2009,04,23,16,25,12.00
2009,04,23,16,26,12.00
2009,04,23,16,27,12.10
2009,04,23,16,28,12.10
2009,04,23,16,29,12.20
2009,04,23,16,30,12.20
2009,04,23,16,31,12.20
2009,04,23,16,32,12.20
2009,04,23,16,33,12.30
2009,04,23,16,34,12.30
2009,04,23,16,35,12.30
2009,04,23,16,36,12.30
2009,04,23,16,37,12.40
2009,04,23,16,38,12.40
2009,04,23,16,39,12.40
2009,04,23,16,40,12.40
2009,04,23,16,41,12.40
2009,04,23,16,42,12.50
2009,04,23,16,43,12.50
2009,04,23,16,44,12.60
2009,04,23,16,45,12.60
2009,04,23,16,46,12.50
2009,04,23,16,47,12.50
2009,04,23,16,48,12.50
2009,04,23,16,49,12.40
2009,04,23,16,50,12.40
2009,04,23,16,51,12.50
2009,04,23,16,52,12.50
2009,04,23,16,53,12.60
2009,04,23,16,54,12.60
2009,04,23,16,55,12.60
2009,04,23,16,56,12.50
2009,04,23,16,57,12.50
2009,04,23,16,58,12.40
2009,04,23,16,59,12.40
2009,04,23,17,00,12.50
2009,04,23,17,01,12.50
2009,04,23,17,02,12.60
2009,04,23,17,03,12.70
2009,04,23,17,04,12.70
2009,04,23,17,05,12.60
2009,04,23,17,06,12.60
2009,04,23,17,07,12.60
2009,04,23,17,08,12.50
2009,04,23,17,09,12.50
2009,04,23,17,10,12.50
2009,04,23,17,11,12.50
2009,04,23,17,12,12.40
2009,04,23,17,13,12.40
2009,04,23,17,14,12.40
2009,04,23,17,15,12.40
2009,04,23,17,16,12.50
2009,04,23,17,17,12.50
2009,04,23,17,18,12.60
2009,04,23,17,19,12.70
2009,04,23,17,20,12.70
2009,04,23,17,21,12.60
2009,04,23,17,22,12.50
2009,04,23,17,23,12.50
2009,04,23,17,24,12.40
2009,04,23,17,25,12.30
2009,04,23,17,26,12.20
2009,04,23,17,27,12.20
2009,04,23,17,28,12.20
2009,04,23,17,29,12.20
2009,04,23,17,30,12.10
2009,04,23,17,31,12.10
2009,04,23,17,32,12.20
2009,04,23,17,33,12.20
2009,04,23,17,34,12.20
2009,04,23,17,35,12.30
2009,04,23,17,36,12.40
2009,04,23,17,37,12.40
2009,04,23,17,38,12.50
2009,04,23,17,39,12.60
2009,04,23,17,40,12.60
2009,04,23,17,41,12.70
2009,04,23,17,42,12.70
2009,04,23,17,43,12.70
2009,04,23,17,44,12.70
2009,04,23,17,45,12.80
2009,04,23,17,46,12.80